• In Latvia
  • List of Countries
  • For 7 days
  • Water Temperature
  • Satellite Maps
  • Weather Map
  • Weather Widgets
  • user-avatar
    Login

    Hourly Weather Djelfa

    Today, 25 March, Saturday

    Time Temperature Precipitation Wind Pressure Humidity
    00:00 +1°C° 0 mm 4 mps 662 mmHg 71%
    01:00 +1°C° 0 mm 4 mps 662 mmHg 70%
    02:00 +2°C° 0 mm 3 mps 662 mmHg 69%
    03:00 +2°C° 0 mm 3 mps 662 mmHg 68%
    04:00 +1°C° 0 mm 3 mps 663 mmHg 66%
    05:00 +1°C° 0 mm 3 mps 663 mmHg 63%
    06:00 +1°C° 0 mm 3 mps 663 mmHg 60%
    07:00 +3°C° 0 mm 3 mps 664 mmHg 52%
    08:00 +7°C° 0 mm 3 mps 664 mmHg 43%
    09:00 +9°C° 0 mm 3 mps 665 mmHg 35%
    10:00 +10°C° 0 mm 3 mps 665 mmHg 31%
    11:00 +12°C° 0 mm 3 mps 666 mmHg 28%
    12:00 +14°C° 0 mm 4 mps 666 mmHg 25%
    13:00 +14°C° 0 mm 3 mps 665 mmHg 23%
    14:00 +16°C° 0 mm 3 mps 665 mmHg 22%
    15:00 +17°C° 0 mm 3 mps 665 mmHg 20%
    16:00 +16°C° 0 mm 3 mps 665 mmHg 23%
    17:00 +15°C° 0 mm 2 mps 664 mmHg 25%
    18:00 +14°C° 0 mm 2 mps 664 mmHg 27%
    19:00 +14°C° 0 mm 2 mps 664 mmHg 28%
    20:00 +12°C° 0 mm 3 mps 664 mmHg 28%
    21:00 +11°C° 0 mm 3 mps 665 mmHg 29%
    22:00 +11°C° 0 mm 3 mps 665 mmHg 29%
    23:00 +10°C° 0 mm 3 mps 665 mmHg 30%

    Tomorrow, 26 March, Sunday

    Time Temperature Precipitation Wind Pressure Humidity
    00:00 +10°C° 0 mm 3 mps 665 mmHg 30%
    01:00 +9°C° 0 mm 2 mps 665 mmHg 31%
    02:00 +9°C° 0 mm 2 mps 664 mmHg 31%
    03:00 +9°C° 0 mm 2 mps 664 mmHg 31%
    04:00 +8°C° 0 mm 2 mps 664 mmHg 31%
    05:00 +8°C° 0 mm 2 mps 663 mmHg 32%
    06:00 +8°C° 0 mm 2 mps 663 mmHg 32%
    07:00 +10°C° 0 mm 3 mps 664 mmHg 28%
    08:00 +12°C° 0 mm 3 mps 665 mmHg 24%
    09:00 +14°C° 0 mm 4 mps 665 mmHg 20%
    10:00 +15°C° 0 mm 4 mps 665 mmHg 19%
    11:00 +17°C° 0 mm 5 mps 665 mmHg 19%
    12:00 +19°C° 0 mm 5 mps 665 mmHg 18%
    13:00 +19°C° 0 mm 5 mps 665 mmHg 18%
    14:00 +20°C° 0 mm 5 mps 664 mmHg 19%
    15:00 +20°C° 0 mm 5 mps 664 mmHg 19%
    16:00 +19°C° 0 mm 5 mps 664 mmHg 21%
    17:00 +18°C° 0 mm 4 mps 663 mmHg 23%
    18:00 +17°C° 0 mm 4 mps 663 mmHg 25%
    19:00 +15°C° 0 mm 4 mps 664 mmHg 28%
    20:00 +14°C° 0 mm 4 mps 664 mmHg 30%
    21:00 +14°C° 0 mm 5 mps 664 mmHg 32%
    22:00 +13°C° 0 mm 5 mps 664 mmHg 35%
    23:00 +12°C° 0 mm 4 mps 664 mmHg 37%

    Day after tomorrow, 27 March, Monday

    Time Temperature Precipitation Wind Pressure Humidity
    00:00 +12°C° 0 mm 4 mps 664 mmHg 40%
    01:00 +11°C° 0 mm 4 mps 663 mmHg 42%
    02:00 +11°C° 0 mm 3 mps 663 mmHg 45%
    03:00 +10°C° 0 mm 3 mps 663 mmHg 47%
    04:00 +10°C° 0 mm 3 mps 663 mmHg 49%
    05:00 +10°C° 0 mm 2 mps 663 mmHg 51%
    06:00 +9°C° 0 mm 2 mps 663 mmHg 52%
    07:00 +12°C° 0 mm 2 mps 664 mmHg 46%
    08:00 +14°C° 0 mm 2 mps 665 mmHg 39%
    09:00 +16°C° 0 mm 3 mps 666 mmHg 32%
    10:00 +17°C° 0 mm 2 mps 667 mmHg 29%
    11:00 +18°C° 0 mm 2 mps 667 mmHg 26%
    12:00 +19°C° 0 mm 2 mps 667 mmHg 23%
    13:00 +20°C° 0 mm 2 mps 667 mmHg 22%
    14:00 +20°C° 0 mm 2 mps 666 mmHg 21%
    15:00 +21°C° 0 mm 2 mps 666 mmHg 19%
    16:00 +20°C° 0 mm 3 mps 666 mmHg 23%
    17:00 +19°C° 0 mm 3 mps 666 mmHg 26%
    18:00 +18°C° 0 mm 4 mps 666 mmHg 29%
    19:00 +17°C° 0 mm 4 mps 666 mmHg 39%
    20:00 +14°C° 0 mm 5 mps 667 mmHg 48%
    21:00 +13°C° 0 mm 5 mps 667 mmHg 58%
    22:00 +12°C° 0 mm 5 mps 667 mmHg 63%
    23:00 +11°C° 0 mm 4 mps 667 mmHg 68%

    28 March, Tuesday

    Time Temperature Precipitation Wind Pressure Humidity
    00:00 +11°C° 0 mm 4 mps 667 mmHg 72%
    01:00 +10°C° 0 mm 3 mps 667 mmHg 75%
    02:00 +10°C° 0 mm 3 mps 666 mmHg 77%
    03:00 +9°C° 0 mm 3 mps 666 mmHg 80%
    04:00 +9°C° 0 mm 2 mps 666 mmHg 82%
    05:00 +8°C° 0 mm 2 mps 666 mmHg 83%
    06:00 +8°C° 0 mm 2 mps 666 mmHg 85%
    07:00 +10°C° 0 mm 2 mps 667 mmHg 74%
    08:00 +12°C° 0 mm 3 mps 668 mmHg 63%
    09:00 +13°C° 0 mm 3 mps 668 mmHg 52%
    10:00 +16°C° 0.1 mm 3 mps 668 mmHg 48%
    11:00 +17°C° 0.1 mm 3 mps 669 mmHg 43%
    12:00 +18°C° 0.1 mm 3 mps 669 mmHg 38%
    13:00 +18°C° 0.6 mm 2 mps 668 mmHg 38%
    14:00 +18°C° 0.6 mm 2 mps 668 mmHg 37%
    15:00 +18°C° 0.6 mm 2 mps 668 mmHg 36%
    16:00 +18°C° 0.7 mm 2 mps 668 mmHg 39%
    17:00 +17°C° 0.7 mm 2 mps 668 mmHg 41%
    18:00 +16°C° 0.7 mm 2 mps 668 mmHg 43%
    19:00 +16°C° 0.2 mm 2 mps 668 mmHg 47%
    20:00 +14°C° 0.2 mm 3 mps 669 mmHg 52%
    21:00 +13°C° 0.2 mm 3 mps 669 mmHg 57%
    22:00 +13°C° 0.2 mm 2 mps 669 mmHg 61%
    23:00 +12°C° 0.2 mm 2 mps 669 mmHg 65%

    29 March, Wednesday

    Time Temperature Precipitation Wind Pressure Humidity
    00:00 +10°C° 0.2 mm 2 mps 668 mmHg 68%
    01:00 +10°C° 0.2 mm 2 mps 668 mmHg 70%
    02:00 +10°C° 0.2 mm 2 mps 668 mmHg 72%
    03:00 +9°C° 0.2 mm 2 mps 668 mmHg 73%
    04:00 +10°C° 0 mm 1 mps 668 mmHg 75%
    05:00 +9°C° 0 mm 1 mps 668 mmHg 76%
    06:00 +9°C° 0 mm 1 mps 668 mmHg 77%
    07:00 +10°C° 0 mm 1 mps 669 mmHg 71%
    08:00 +12°C° 0 mm 1 mps 669 mmHg 65%
    09:00 +13°C° 0 mm 1 mps 670 mmHg 59%
    10:00 +14°C° 0.1 mm 1 mps 670 mmHg 54%
    11:00 +15°C° 0.1 mm 1 mps 670 mmHg 48%
    12:00 +16°C° 0.1 mm 1 mps 670 mmHg 43%
    13:00 +17°C° 0.1 mm 2 mps 669 mmHg 39%
    14:00 +17°C° 0.1 mm 2 mps 669 mmHg 35%
    15:00 +18°C° 0.1 mm 2 mps 669 mmHg 31%
    16:00 +17°C° 0 mm 2 mps 669 mmHg 31%
    17:00 +17°C° 0 mm 2 mps 669 mmHg 31%
    18:00 +17°C° 0 mm 2 mps 669 mmHg 30%
    19:00 +16°C° 0 mm 2 mps 669 mmHg 36%
    20:00 +14°C° 0 mm 1 mps 669 mmHg 41%
    21:00 +13°C° 0 mm 1 mps 669 mmHg 46%
    22:00 +13°C° 0 mm 1 mps 669 mmHg 50%
    23:00 +12°C° 0 mm 1 mps 669 mmHg 53%

    30 March, Thursday

    Time Temperature Precipitation Wind Pressure Humidity
    00:00 +12°C° 0 mm 1 mps 669 mmHg 57%
    01:00 +11°C° 0 mm 1 mps 669 mmHg 60%
    02:00 +10°C° 0 mm 1 mps 668 mmHg 62%
    03:00 +10°C° 0 mm 1 mps 668 mmHg 65%
    04:00 +10°C° 0 mm 1 mps 668 mmHg 65%
    05:00 +9°C° 0 mm 1 mps 668 mmHg 66%
    06:00 +9°C° 0 mm 1 mps 668 mmHg 66%
    07:00 +10°C° 0 mm 2 mps 669 mmHg 57%
    08:00 +13°C° 0 mm 3 mps 670 mmHg 48%
    09:00 +16°C° 0 mm 3 mps 670 mmHg 39%
    10:00 +17°C° 0 mm 4 mps 670 mmHg 33%
    11:00 +19°C° 0 mm 4 mps 670 mmHg 27%
    12:00 +20°C° 0 mm 4 mps 670 mmHg 21%
    13:00 +21°C° 0 mm 4 mps 670 mmHg 20%
    14:00 +21°C° 0 mm 4 mps 669 mmHg 19%
    15:00 +22°C° 0 mm 4 mps 669 mmHg 18%
    16:00 +21°C° 0 mm 4 mps 669 mmHg 20%
    17:00 +20°C° 0 mm 3 mps 668 mmHg 22%
    18:00 +19°C° 0 mm 3 mps 668 mmHg 24%
    19:00 +18°C° 0 mm 3 mps 668 mmHg 25%
    20:00 +17°C° 0 mm 3 mps 669 mmHg 27%
    21:00 +14°C° 0 mm 3 mps 669 mmHg 28%
    22:00 +15°C° 0 mm 2 mps 669 mmHg 34%
    23:00 +14°C° 0 mm 2 mps 668 mmHg 40%
    Show more